Weather in Demskiy

Russia / Republic of Bashkortostan     53°32′12″N   54°27′25″E
temp.,
°C
wind,
m/s
gust,
m/s
humid.,
%
clouds,
%
prec.,
mm/h
press.,
hPa
HPBL,
m
25 february, thu
thu2523:00−25n4109235 0.0 1029173
02:00−27n239517 0.0 103122
05:00−29nnw22979 0.0 103219
08:00−31nnw11980 0.0 103419
11:00−25ssw00910 0.0 103435
14:00−21ssw22850 0.0 1033226
17:00−22ssw359318 0.0 1033241
20:00−25s339393 0.0 103244
26 february, fri
fri2623:00−24s389396 0.0 1031225
02:00−22sse41096100 0.1 1028317
05:00−22sse51296100 0.3 1027342
08:00−22sse61195100 0.3 1025367
11:00−20sse71294100 0.5 1024387
14:00−17sse7129198 0.1 1022496
17:00−15sse7119199 0.3 1021583
20:00−15sse7139199 0.1 1018532
27 february, sat
sat2723:00−14s8149199 0.3 1016488
02:00−12sse91691100 0.3 1011468
05:00−10sse101993100 1.6 1006557
08:00−7s81794100 4.8 1001689
11:00−4s81395100 5.8 1000417
14:000wsw61098100 1.2 999624
17:000wsw5997100 1.8 999624
20:00−1sw599798 0.4 999496
28 february, sun
sun2823:00−2sw5109799 0.8 1000330
02:00−2sw5109698 0.3 998384
05:00−2sw499799 0.6 999429
08:00−3sw5997100 0.9 999391
11:00−2sw5797100 1.6 1000433
14:00−1wsw4698100 0.9 1002486
17:00−4w3496100 1.6 1003320
20:00−9nw359593 0.1 1005128
1 march, mon
mon123:00−12nw229695 0.2 100842
02:00−15wnw129799 0.1 100920
05:00−15w129798 0.1 101221
08:00−15wnw119795 0.1 101323
11:00−12nw119290 0.2 1015187
14:00−10nnw2288100 0.1 1016372
17:00−9nw2393100 0.2 1018245
20:00−13nnw2396100 0.1 101956